[[{"header":{"parameterUnit":"m.s-1","parameterCategory":1,"la1":30.2991,"la2":30.254,"lo1":-89.0895,"lo2":-89.0444,"dy":0.0017,"dx":0.0017,"nx":28,"ny":28,"refTime":"2025-05-18T03:00:00:Z","depth":0,"parameterNumber":2,"parameterNumberName":"U-component_of_WINDS"},"data":[0,0,0,0,0,0,0,0,0,0,0,0,0,0,0,0,0,0,0,0,0,0,0,0,0,0,0,0,0,0,0,0,0,0,0,0,0,0,0,0,0,0,0,0,0,0,0,0,0,0,0,0,0,0,0,0,0,0,-0.0867,-0.0867,0,-0.0825,-0.0825,-0.0824,-0.08,-0.08,-0.08,-0.08,-0.0759,-0.0757,-0.0756,0,0,0,0,0,0,0,0,0,0,0,0,0,-0.093,-0.0929,-0.0867,-0.0867,-0.0866,-0.0825,-0.0825,-0.0824,-0.08,-0.08,-0.08,-0.08,-0.0759,-0.0758,-0.0756,0,0,0,0,0,0,0,0,0,0,0,0,0,-0.0897,-0.0929,-0.0868,-0.085,-0.0848,-0.0825,-0.0825,-0.0824,-0.0801,-0.08,-0.08,-0.08,-0.0759,-0.0758,-0.0756,-0.0749,0,0,-0.0751,-0.0751,0,0,0,0,0,0,0,0,-0.0899,-0.0895,-0.0853,-0.0851,-0.0849,-0.0818,-0.0831,-0.0799,-0.0801,-0.0818,-0.08,-0.08,-0.0778,-0.0775,-0.0768,-0.0747,-0.0745,-0.0751,-0.075,-0.075,-0.0749,0,0,0,0,0,0,0,-0.0901,-0.0897,-0.0851,-0.0852,-0.085,-0.0845,-0.084,-0.0825,-0.08,-0.0817,-0.0815,-0.081,-0.0777,-0.0769,-0.0767,-0.0744,-0.0751,-0.075,-0.0749,-0.0748,-0.0717,-0.0717,0,0,0,0,0,0,-0.0906,-0.0899,-0.0852,-0.0849,-0.0874,-0.0844,-0.0838,-0.0828,-0.08,-0.0795,-0.081,-0.0809,-0.0772,-0.0768,-0.0765,-0.0755,-0.075,-0.0748,-0.0747,-0.0717,-0.0717,-0.0717,0,0,0,0,0,0,-0.0908,-0.0902,-0.0854,-0.0874,-0.0867,-0.0843,-0.0831,-0.0827,-0.0819,-0.0795,-0.079,-0.0807,-0.0772,-0.0767,-0.0753,-0.0753,-0.0748,-0.0746,-0.0717,-0.0717,-0.0717,-0.0735,0,0,0,0,0,0,-0.091,-0.0903,-0.0899,-0.0874,-0.0866,-0.0842,-0.0831,-0.0826,-0.0816,-0.0814,-0.079,-0.0786,-0.0771,-0.0756,-0.0752,-0.0751,-0.0745,-0.0717,-0.0717,-0.0717,-0.0735,-0.0736,-0.0737,0,0,0,0,0,-0.0912,-0.0906,-0.0899,-0.0894,-0.0861,-0.0842,-0.0838,-0.082,-0.0816,-0.0813,-0.0798,-0.0787,-0.0754,-0.0754,-0.075,-0.0749,-0.0717,-0.0717,-0.0717,-0.0734,-0.0736,-0.0737,0,0,0,0,0,0,-0.0933,-0.0902,-0.0894,-0.088,-0.0864,-0.0838,-0.0833,-0.0823,-0.0808,-0.0807,-0.0786,-0.0781,-0.0769,-0.0758,-0.0759,-0.0741,-0.0734,-0.0734,-0.0749,-0.075,-0.0752,-0.0755,-0.0744,0,0,0,0,0,-0.0936,-0.0922,-0.0897,-0.0887,-0.0879,-0.0858,-0.0849,-0.0837,-0.0819,-0.0813,-0.0796,-0.078,-0.0766,-0.0758,-0.0744,-0.0733,-0.0728,-0.073,-0.0732,-0.0733,-0.0732,-0.0727,-0.0728,-0.0718,-0.0718,-0.0718,0,0,-0.0942,-0.0923,-0.0916,-0.089,-0.0876,-0.0864,-0.0852,-0.0839,-0.083,-0.0811,-0.0796,-0.0784,-0.0765,-0.0753,-0.0747,-0.0743,-0.0734,-0.0733,-0.0734,-0.0733,-0.0727,-0.0728,-0.0729,-0.0718,-0.0718,-0.0718,0,0,-0.0946,-0.093,-0.0921,-0.0907,-0.0886,-0.0872,-0.087,-0.0846,-0.0837,-0.0822,-0.0808,-0.0797,-0.0774,-0.0761,-0.0752,-0.0753,-0.0743,-0.0749,-0.0756,-0.0751,-0.0752,-0.0752,-0.0754,-0.0754,-0.0748,-0.0748,-0.0748,0,-0.0956,-0.0936,-0.0917,-0.0905,-0.0895,-0.0877,-0.0868,-0.0855,-0.0831,-0.0825,-0.0821,-0.0791,-0.0777,-0.0763,-0.0763,-0.0756,-0.0753,-0.0751,-0.0753,-0.0753,-0.0754,-0.0755,-0.0755,-0.0749,-0.0749,-0.0749,-0.0749,0,-0.095,-0.0936,-0.0931,-0.0908,-0.0897,-0.0886,-0.0867,-0.0858,-0.0848,-0.0835,-0.0821,-0.0803,-0.0786,-0.0782,-0.0771,-0.0766,-0.0764,-0.0757,-0.075,-0.0756,-0.0757,-0.0757,-0.0751,-0.075,-0.075,-0.075,0,0,-0.0965,-0.0932,-0.0931,-0.0921,-0.0897,-0.0886,-0.0876,-0.0858,-0.0852,-0.0836,-0.0827,-0.0808,-0.0802,-0.0791,-0.0779,-0.0775,-0.0778,-0.0768,-0.0767,-0.0771,-0.0772,-0.0778,-0.0779,-0.0771,-0.0771,-0.0771,-0.0774,0,-0.0966,-0.0945,-0.0929,-0.0914,-0.0902,-0.0886,-0.0877,-0.0862,-0.085,-0.0838,-0.0825,-0.0812,-0.0804,-0.0798,-0.0793,-0.0779,-0.0778,-0.0778,-0.0764,-0.0763,-0.0769,-0.0779,-0.0785,-0.0788,-0.0774,-0.0774,-0.0774,0,-0.0964,-0.0949,-0.0934,-0.0912,-0.0907,-0.0898,-0.0882,-0.0871,-0.0854,-0.0846,-0.0835,-0.0822,-0.0812,-0.0806,-0.0791,-0.0792,-0.0785,-0.0777,-0.0777,-0.0775,-0.0769,-0.0778,-0.0789,-0.0789,-0.0774,-0.0774,-0.0774,0,-0.0978,-0.0954,-0.0942,-0.0933,-0.0908,-0.0903,-0.0892,-0.0875,-0.0866,-0.0852,-0.0846,-0.0831,-0.0823,-0.0812,-0.0797,-0.0794,-0.0784,-0.0777,-0.0778,-0.0778,-0.0776,-0.0777,-0.0787,-0.0771,-0.0771,-0.0771,-0.0771,0,-0.0981,-0.0972,-0.0947,-0.094,-0.093,-0.0912,-0.0903,-0.0891,-0.0877,-0.0867,-0.0852,-0.0844,-0.0824,-0.0814,-0.0802,-0.0792,-0.0789,-0.0782,-0.0779,-0.0784,-0.0785,-0.0779,-0.0779,-0.0772,-0.0772,-0.0771,-0.0771,0,-0.0994,-0.0977,-0.0963,-0.094,-0.0934,-0.0928,-0.0909,-0.0902,-0.0889,-0.0878,-0.0874,-0.0855,-0.0842,-0.0826,-0.0808,-0.08,-0.0792,-0.0787,-0.0797,-0.0796,-0.0798,-0.0798,-0.0805,-0.0805,-0.0789,-0.079,-0.079,0,-0.0997,-0.099,-0.0967,-0.096,-0.0949,-0.0937,-0.0928,-0.0911,-0.0902,-0.0883,-0.0879,-0.0865,-0.0853,-0.0834,-0.0818,-0.0805,-0.08,-0.0803,-0.0798,-0.0803,-0.0801,-0.0802,-0.0801,-0.0805,-0.0805,-0.0805,-0.0805,0,-0.1005,-0.0997,-0.0984,-0.0969,-0.0959,-0.0946,-0.0932,-0.0927,-0.0907,-0.0899,-0.0885,-0.0876,-0.0858,-0.0845,-0.083,-0.082,-0.081,-0.0807,-0.0807,-0.0812,-0.0818,-0.0815,-0.0802,-0.0807,-0.0807,-0.0807,-0.0807,-0.0807,-0.1013,-0.1007,-0.099,-0.0976,-0.0965,-0.0953,-0.0945,-0.0932,-0.092,-0.0904,-0.0895,-0.0882,-0.0867,-0.0846,-0.0836,-0.0827,-0.0823,-0.0822,-0.0822,-0.0822,-0.0824,-0.082,-0.0824,-0.0824,-0.0824,-0.0824,-0.0824,0,-0.1021,-0.1009,-0.0997,-0.0979,-0.0969,-0.096,-0.0945,-0.0938,-0.0927,-0.0913,-0.0902,-0.0888,-0.0875,-0.0859,-0.0846,-0.0842,-0.0837,-0.0839,-0.0839,-0.0837,-0.0828,-0.083,-0.0843,-0.0843,-0.0843,-0.0843,-0.0843,-0.0843,-0.1023,-0.1012,-0.1003,-0.0986,-0.0975,-0.0962,-0.0954,-0.0944,-0.0933,-0.0918,-0.0907,-0.0897,-0.0883,-0.0869,-0.0858,-0.0853,-0.085,-0.0853,-0.0848,-0.0839,-0.0838,-0.0836,-0.0838,-0.0852,-0.0852,-0.0858,-0.0858,-0.0858]},{"header":{"parameterUnit":"m.s-1","parameterCategory":1,"la1":30.2991,"la2":30.254,"lo1":-89.0895,"lo2":-89.0444,"dy":0.0017,"dx":0.0017,"nx":28,"ny":28,"refTime":"2025-05-18T03:00:00:Z","depth":0,"parameterNumber":3,"parameterNumberName":"V-component_of_WINDS"},"data":[0,0,0,0,0,0,0,0,0,0,0,0,0,0,0,0,0,0,0,0,0,0,0,0,0,0,0,0,0,0,0,0,0,0,0,0,0,0,0,0,0,0,0,0,0,0,0,0,0,0,0,0,0,0,0,0,0,0,4.6187,4.6188,0,4.6205,4.6205,4.6205,4.6147,4.6145,4.6143,4.6142,4.6157,4.6159,4.6161,0,0,0,0,0,0,0,0,0,0,0,0,0,4.6101,4.6103,4.6187,4.6188,4.6188,4.6205,4.6205,4.6205,4.6147,4.6145,4.6143,4.6141,4.6156,4.6159,4.6161,0,0,0,0,0,0,0,0,0,0,0,0,0,4.613,4.6103,4.6187,4.6161,4.6159,4.6205,4.6205,4.6205,4.6148,4.6145,4.6142,4.614,4.6155,4.6158,4.6161,4.6233,0,0,4.6171,4.6172,0,0,0,0,0,0,0,0,4.6129,4.6133,4.6165,4.6163,4.6161,4.6171,4.618,4.6214,4.6148,4.6152,4.6142,4.6139,4.6164,4.6166,4.6175,4.6234,4.6234,4.6171,4.6173,4.6174,4.6175,0,0,0,0,0,0,0,4.6127,4.6132,4.6194,4.6165,4.6163,4.6147,4.6149,4.6186,4.6172,4.6151,4.6147,4.615,4.6162,4.6172,4.6175,4.6234,4.6171,4.6174,4.6175,4.6177,4.6352,4.6355,0,0,0,0,0,0,4.6128,4.6131,4.6194,4.6195,4.6138,4.6151,4.6152,4.617,4.6172,4.6169,4.6152,4.6147,4.6168,4.6171,4.6175,4.6258,4.6174,4.6177,4.6179,4.6349,4.6353,4.6356,0,0,0,0,0,0,4.6127,4.6135,4.6193,4.6162,4.6168,4.6155,4.6176,4.6172,4.6182,4.6172,4.6169,4.6165,4.6166,4.6171,4.6219,4.6258,4.6178,4.6181,4.6346,4.635,4.6354,4.6426,0,0,0,0,0,0,4.6125,4.6134,4.6162,4.6163,4.617,4.6238,4.6178,4.6174,4.6188,4.6181,4.6184,4.6182,4.6164,4.6215,4.6222,4.6261,4.6183,4.6342,4.6348,4.6353,4.642,4.6432,4.6443,0,0,0,0,0,4.6122,4.6181,4.6164,4.6172,4.6205,4.624,4.6244,4.6224,4.6191,4.6218,4.6212,4.6182,4.6253,4.622,4.6228,4.6268,4.634,4.6346,4.6352,4.6415,4.643,4.6442,0,0,0,0,0,0,4.6184,4.6181,4.6162,4.6223,4.6233,4.623,4.6264,4.624,4.6258,4.6251,4.6224,4.6225,4.6278,4.6278,4.6242,4.6337,4.629,4.6299,4.6335,4.6349,4.636,4.6359,4.6186,0,0,0,0,0,4.6206,4.6236,4.623,4.6285,4.6291,4.6277,4.6292,4.6275,4.6283,4.6287,4.6284,4.6292,4.6316,4.6333,4.6355,4.642,4.6419,4.6451,4.6463,4.6472,4.6479,4.6513,4.6527,4.6377,4.6377,4.6376,0,0,4.6249,4.6251,4.6271,4.6298,4.6303,4.6334,4.6281,4.6316,4.6338,4.6292,4.6337,4.6336,4.6343,4.64,4.6425,4.6402,4.6521,4.648,4.6487,4.649,4.6521,4.6535,4.6548,4.6381,4.638,4.6379,0,0,4.6344,4.6349,4.6395,4.6402,4.6411,4.6401,4.6412,4.6414,4.6411,4.6457,4.6423,4.6448,4.6491,4.6497,4.6506,4.6604,4.6577,4.6612,4.6671,4.6704,4.6716,4.6726,4.6761,4.6774,4.6619,4.662,4.662,0,4.6397,4.6444,4.6422,4.6459,4.6472,4.6432,4.6478,4.6485,4.6501,4.651,4.6483,4.6535,4.6538,4.6595,4.6619,4.6628,4.6639,4.6611,4.6716,4.6726,4.6736,4.6768,4.6781,4.6624,4.6623,4.6623,4.6622,0,4.6508,4.654,4.6576,4.6593,4.661,4.6651,4.6635,4.6654,4.6636,4.6629,4.6675,4.6677,4.6698,4.671,4.6693,4.6766,4.6751,4.6721,4.6673,4.6755,4.6785,4.6797,4.663,4.6628,4.6627,4.6626,0,0,4.6643,4.6648,4.6661,4.6668,4.6675,4.6699,4.6739,4.676,4.6777,4.6789,4.6821,4.6857,4.683,4.684,4.6823,4.6852,4.6929,4.6818,4.6818,4.6839,4.7009,4.7032,4.7047,4.6911,4.6914,4.6915,4.7008,0,4.6736,4.6805,4.6787,4.6854,4.6884,4.6847,4.6881,4.6888,4.6883,4.6906,4.6899,4.6926,4.6887,4.6893,4.6921,4.6914,4.6963,4.6907,4.694,4.6941,4.6939,4.7062,4.7086,4.7174,4.702,4.7022,4.7024,0,4.6855,4.6872,4.6944,4.6946,4.6957,4.6988,4.7007,4.703,4.7037,4.7031,4.7043,4.7019,4.7057,4.701,4.7061,4.7024,4.7036,4.7035,4.7038,4.704,4.6987,4.7067,4.7201,4.7215,4.7042,4.7041,4.7039,0,4.6946,4.6987,4.7035,4.7042,4.7046,4.7069,4.7071,4.7076,4.709,4.7106,4.7114,4.7134,4.7145,4.716,4.7142,4.711,4.7196,4.7148,4.7191,4.7192,4.7211,4.721,4.7349,4.722,4.7219,4.7219,4.7219,0,4.7052,4.7097,4.7076,4.7105,4.7154,4.7132,4.7181,4.7179,4.7184,4.7211,4.718,4.7207,4.7182,4.7206,4.7193,4.7237,4.7242,4.7237,4.7233,4.724,4.7241,4.7247,4.7241,4.7223,4.7222,4.7221,4.7221,0,4.7162,4.7149,4.7199,4.7199,4.72,4.7236,4.7235,4.7262,4.7254,4.7289,4.7296,4.7284,4.731,4.7295,4.7322,4.7312,4.737,4.7358,4.7368,4.7365,4.7409,4.7405,4.7557,4.7575,4.7435,4.7436,4.7437,0,4.723,4.7264,4.7268,4.7284,4.7289,4.7317,4.7331,4.731,4.7326,4.7338,4.7363,4.7387,4.7405,4.7449,4.7442,4.7462,4.745,4.7502,4.7453,4.7459,4.745,4.7449,4.7452,4.7512,4.7513,4.7515,4.7516,0,4.7353,4.7345,4.7368,4.7388,4.7407,4.7422,4.7434,4.7449,4.7428,4.7448,4.7475,4.749,4.7518,4.7542,4.7559,4.756,4.7535,4.7531,4.7542,4.755,4.7554,4.7552,4.7395,4.7528,4.7526,4.7526,4.7525,4.7524,4.7444,4.7472,4.7479,4.7505,4.7512,4.7525,4.755,4.7545,4.7568,4.759,4.7576,4.7608,4.7614,4.7635,4.7639,4.7664,4.7643,4.7659,4.7663,4.7667,4.7673,4.7551,4.7667,4.7666,4.7666,4.7666,4.7665,0,4.7564,4.7567,4.7592,4.761,4.763,4.7605,4.7617,4.7636,4.7665,4.7673,4.7692,4.7723,4.7747,4.7741,4.7762,4.7783,4.7771,4.7789,4.7787,4.7787,4.7691,4.7679,4.7798,4.7798,4.7798,4.7797,4.7797,4.7797,4.763,4.7676,4.7669,4.7719,4.7721,4.7753,4.7762,4.7773,4.7779,4.7816,4.7835,4.7832,4.7835,4.7855,4.7875,4.7873,4.7882,4.7904,4.7898,4.7807,4.7794,4.7782,4.777,4.7906,4.7906,4.7992,4.7993,4.7993]}]]